sat.trackr.live / text

‹ back to catalog

STARLINK-35983

NORAD 66902 · 2025-283AA

PAYLOAD ACTIVE UNKNOWN

§ Identity

Operator
Country
US
Launch date
2025-12-04
Launch site
AFWTR
Launch vehicle
Mass (kg)
RCS (m²)

Purposes: comms

External: N2YO · Heavens-Above · Gunter

§ Orbital elements

Epoch: 2026-09-20T07:33:17.878464Z

Period
93.85 min
Inclination
53.1590°
Eccentricity
0.0001306
Mean motion
15.34411985 rev/d
Perigee alt
461.8 km
Apogee alt
463.6 km
Semi-major
6,840.8 km
B*
5.9744e-4
RAAN
196.5013°
Arg perigee
89.1123°
Mean anomaly
271.0029°
Rev number
4,569

§ Raw data

STARLINK-359831 66902U 25283AA  26263.31479026  .00019870  00000+0  59744-3 0  99902 66902  53.1590 196.5013 0001306  89.1123 271.0029 15.34411985 45693

JSON: /api/v1/satellites/66902 · /tle

For live sub-satellite position, see the globe view (requires WebGL).

§ Visibility from observer

Set your observer location to see the next 7 days of passes ≥ 10°. The values pass through the URL so the page stays shareable.

No JS? Fill the form by hand. The geolocation button needs JavaScript.